Location: Daytona Beach
(29.2106°N, 81.0231°W)
Time: 23:14:25
(UTC-04:00)

RS-15 - Pass Details

Date: 04 October 2021
Orbit: 1884 x 2160 km, 64.8° (Epoch: 24 October)

Event Time Altitude Azimuth Distance (km) Brightness Sun altitude
Rises 21:55:17 0° 339° (NNW) 5,621 10.9 -37.4°
Reaches altitude 10° 22:00:23 10° 356° (N) 4,649 10.2 -38.5°
Enters shadow 22:07:50 20° 35° (NE) 3,909 9.4 -40.0°
